15P/Finlay (2002)

Japanese version
Home page
Total 6,336 html files since Dec. 4, 1995
Updated on May 6, 2008

---------------------------------------------------------------------

* Profile

* Orbital Elements

Epoch 2002 Feb. 15.0 TT = JDT 2452320.5
T 2002 Feb. 7.2056 TT                                   MPCN
q   1.034134             (2000.0)            P               Q
n   0.1459809      Peri.  323.6418      +0.9944023      -0.0965799
a   3.572225       Node    41.9642      +0.1055698      +0.8914350
e   0.710507       Incl.    3.6744      +0.0043606      +0.4427368
P   6.75
From 60 observations 1967-2002, mean residual 1".2.  Nongravitational
     parameters A1 = +0.10, A2 = +0.0185.

* Finding Charts

* Magnitudes Graph

        m1 = 11.5 + 5 log d + 25.0 log r(t - 20)  [  ,20]  (             - 2002 Feb. 27)
        m1 = 11.6 + 5 log d + 17.0 log r(t - 20)  [20,  ]  (2002 Feb. 27 -             )

---------------------------------------------------------------------

The orbital elements are published at the MPC Ephemerides and Orbital Elements.
The charts are made with StellaNavigator Ver.2.0 for Windows (AstroArts / ASCII).
The magnitudes graphs are made with Comet for Windows.

---------------------------------------------------------------------

Copyright(C) 1995-2008 Seiichi Yoshida (comet@aerith.net). All rights reserved.